Regional Weather Roundup
Issued by NWS

Home | Current Version | Previous Version | Graphics & Text | Print | Product List | Glossary Off
Versions: 1 2 3 4 5 6 7 8 9 10 11 12 13 14 15 16 17 18 19 20 21 22 23 24 25 26 27 28 29 30 31 32 33 34 35 36 37 38 39 40 41 42 43 44 45 46 47 48 49 50

000
ASUS43 KTOP 190708
RWRKS

WEATHER ROUNDUP FOR KANSAS
NATIONAL WEATHER SERVICE GOODLAND KS
100 AM CST FRI DEC 19 2014

NOTE:  "FAIR" INDICATES FEW OR NO CLOUDS BELOW 12,000 FEET WITH NO
SIGNIFICANT WEATHER AND/OR OBSTRUCTIONS TO VISIBILITY.

KSZ001>006-013>018-027>032-041>047-190800-
NORTHWEST KANSAS

CITY           SKY/WX    TMP DP  RH WIND       PRES   REMARKS
GOODLAND       PTCLDY    25  20  81 SW6       30.12S
HAYS           CLOUDY    32  25  74 S5        30.19F
HILL CITY      CLOUDY    33  29  85 S5        30.18F
RUSSELL        CLOUDY    31  29  92 S6        30.20F
$$

KSZ061>065-074>080-084>089-190800-
SOUTHWEST KANSAS

CITY           SKY/WX    TMP DP  RH WIND       PRES   REMARKS
DODGE CITY     CLOUDY    33  31  92 SW3       30.18F FOG
ELKHART          N/A     32  28  85 S5          N/A
GARDEN CITY    CLOUDY    33  31  92 SW5       30.16F
GREAT BEND     CLOUDY    30  25  80 S6        30.22F
LIBERAL        CLOUDY    36  30  80 CALM      30.19S
PRATT          CLOUDY    32  32 100 E3        30.22S FOG
$$

KSZ066>073-081>083-090>101-190800-
SOUTHEAST KANSAS

CITY           SKY/WX    TMP DP  RH WIND       PRES   REMARKS
CHANUTE        CLOUDY    34  33  96 N3        30.24F FOG
COFFEYVILLE    CLOUDY    36  34  92 N5        30.25S
HUTCHINSON     CLOUDY    31  28  89 CALM      30.24S FOG
MEDICINE LODGE   N/A     34  31  88 CALM      30.23R
NEWTON         CLOUDY    28  25  86 CALM      30.25S VSB 1/2
PARSONS        CLOUDY    36  34  92 N3        30.26S
WICHITA INTL   CLOUDY    31  28  89 CALM      30.24F
WICHITA JABRA  CLOUDY    29  28  96 N3        30.24S FOG
WICHITA MCCONL CLOUDY    29  28  95 CALM      30.25S
WINFIELD       CLOUDY    33  32  96 N5        30.26S
$$

KSZ007>012-019>026-033>040-048>060-102>105-190800-
NORTHEAST KANSAS

CITY           SKY/WX    TMP DP  RH WIND       PRES   REMARKS
CONCORDIA      CLOUDY    28  27  96 SW6       30.23F
EMPORIA        CLOUDY    30  28  92 CALM      30.25S
LAWRENCE       CLOUDY    31  29  92 SE3       30.27F
MANHATTAN      CLOUDY    31  28  89 CALM      30.26F
MARYSVILLE     CLOUDY    30  28  93 CALM      30.23F
OLATHE IND     CLOUDY    31  29  92 CALM      30.26S
OLATHE EXE     CLOUDY    31  29  92 CALM      30.24S
SALINA         CLOUDY    30  27  88 CALM      30.25F
TOPEKA BILLARD CLOUDY    33  29  85 CALM      30.27F
TOPEKA FORBES  CLOUDY    32  28  85 S3        30.26S
$$


USA.gov is the U.S. government's official web portal to all federal, state and local government web resources and services.